Regional Weather Roundup
Issued by NWS

Home | Current Version | Previous Version | Text Only | Print | Product List | Glossary Off
Versions: 1 2 3 4 5 6 7 8 9 10 11 12 13 14 15 16 17 18 19 20 21 22 23 24 25 26 27 28 29 30 31 32 33 34 35 36 37 38 39 40 41 42 43 44 45 46 47 48 49 50

358
ASUS43 KMKX 281611
RWRWI

WISCONSIN REGIONAL WEATHER ROUNDUP
NATIONAL WEATHER SERVICE MILWAUKEE/SULLIVAN WI
1100 AM CDT SAT MAY 28 2016

NOTE: "FAIR" INDICATES FEW OR NO CLOUDS BELOW 12,000 FEET WITH NO
SIGNIFICANT WEATHER AND/OR OBSTRUCTIONS TO VISIBILITY.

WIZ001-002-006>008-014>016-023>028-281700-
NORTHWEST WISCONSIN

CITY           SKY/WX    TMP DP  RH WIND       PRES   REMARKS
SUPERIOR ARPT  CLOUDY    49  48  99 E10       29.80R FOG
ASHLAND        CLOUDY    56  52  86 N8        29.79S
HAYWARD        CLOUDY    63  60  90 CALM      29.78S
SIREN          CLOUDY    60  55  84 CALM      29.78F
CUMBERLAND     CLOUDY    61  59  94 N5        29.78S
RICE LAKE      CLOUDY    65  60  85 CALM      29.78S
CHETEK         CLOUDY    66  63  89 CALM      29.77R
LADYSMITH      CLOUDY    68  65  88 CALM      29.78S
EAU CLAIRE     CLOUDY    70  64  81 N5        29.75S
MENOMONIE      CLOUDY    67  67 100 CALM      29.76S
NEW RICHMOND   CLOUDY    65  62  90 CALM      29.77S
OSCEOLA        CLOUDY    61  61 100 NW3       29.80S
$$

WIZ003>005-009-010-017-018-281700-
NORTH CENTRAL WISCONSIN

CITY           SKY/WX    TMP DP  RH WIND       PRES   REMARKS
MANITOWISH WTR NOT AVBL
ARBOR VITAE    PTSUNNY   65  62  88 SE3       29.79S
WOODRUFF       PTSUNNY   65  62  88 SE3       29.79S
RHINELANDER    CLOUDY    69  65  86 S6        29.79S
EAGLE RIVER      N/A     67  66  97 SE5       29.79F
LAND O LAKES   DRIZZLE   67  66  95 SE7       29.81S
PHILLIPS       CLOUDY    69  65  86 CALM      29.77S
TOMAHAWK       HVY RAIN  67  65  93 CALM      29.78S
MEDFORD        RAIN      68  68  99 SE5       29.76S
MERRILL        CLOUDY    70  67  91 S5        29.77F
$$

WIZ029-030-035-036-043>047-281700-
CENTRAL WISCONSIN

CITY           SKY/WX    TMP DP  RH WIND       PRES   REMARKS
WAUSAU         CLOUDY    69  66  90 S10       29.75S FOG
MOSINEE        LGT RAIN  68  68 100 S9G16     29.78S FOG
MARSHFIELD     CLOUDY    69  65  86 S13       29.74S
STEVENS POINT  RAIN      67  65  94 S10       29.78S
WAUPACA        CLOUDY    73  70  91 S9        29.80R
WAUTOMA        CLOUDY    71  66  84 S13G22    29.80R
WISC RAPIDS    CLOUDY    70  65  84 SW9G21    29.78R
CAMP DOUGLAS   PTSUNNY   72  72 100 SW10      29.78R
$$

WIZ011>013-019>022-031-037>040-048>050-281700-
NORTHEAST WISCONSIN

CITY           SKY/WX    TMP DP  RH WIND       PRES   REMARKS
ANTIGO         DRIZZLE   67  67  98 S13G18    29.80S
SHAWANO        CLOUDY    73  67  82 S7G16     29.80R
OCONTO         CLOUDY    69  69 100 S8        29.81R
STURGEON BAY   NOT AVBL
GREEN BAY      CLOUDY    73  66  78 S10       29.81R
MANITOWOC      CLOUDY    65  60  84 S15       29.85S
APPLETON       CLOUDY    72  64  78 SW17      29.80R
CLINTONVILLE   CLOUDY    70  66  88 S10G20    29.80R
OSHKOSH        CLOUDY    74  65  73 S20G30    29.81R
$$

WIZ032>034-041-042-053>061-281700-
SOUTHWEST WISCONSIN

CITY           SKY/WX    TMP DP  RH WIND       PRES   REMARKS
LA CROSSE      LGT RAIN  69  65  86 S9        29.76R
SPARTA         CLOUDY    69  66  92 S6        29.78R
VIROQUA        CLOUDY    69  65  89 SW12      29.80R
BOSCOBEL       CLOUDY    72  63  73 SW12      29.81R
PRAIRIE DU CHI CLOUDY    71  62  73 S7        29.81R
PLATTEVILLE    CLOUDY    71  67  85 SW14      29.84R
$$

WIZ056-057-062-063-064-067-068-281700-
SOUTH CENTRAL WISCONSIN

CITY           SKY/WX    TMP DP  RH WIND       PRES   REMARKS
REEDSBURG      CLOUDY    73  66  80 S14G24    29.80R
BARABOO/DELLS  CLOUDY    71  62  73 S16G26    29.81R
LONE ROCK      CLOUDY    73  63  70 S17       29.83R
MINERAL POINT  CLOUDY    72  66  83 S12       29.85R
MADISON        CLOUDY    73  65  75 SW12G20   29.83R
MIDDLETON      CLOUDY    74  65  74 SW16      29.83S
WATERTOWN      CLOUDY    74  67  81 S20       29.85R
MONROE         CLOUDY    73  66  78 S24       29.85S
JANESVILLE     MOSUNNY   77  66  69 S20G26    29.78F
$$

WIZ051-052-058>065-066-070>072-281700-
SOUTHEAST WISCONSIN

CITY           SKY/WX    TMP DP  RH WIND       PRES   REMARKS
MILWAUKEE      CLOUDY    75  65  70 S20       29.87R
WAUKESHA       CLOUDY    72  64  78 S14       29.88R
MILWAUKEE/TIMM CLOUDY    73  63  68 S17G24    29.87R
RACINE         PTSUNNY   75  65  70 S10       29.90R
BURLINGTON     PTSUNNY   75  66  71 S16G22    29.87S
KENOSHA        CLOUDY    76  65  68 S16G24    29.89R
FOND DU LAC    CLOUDY    74  66  76 S21G30    29.82R
SHEBOYGAN      CLOUDY    73  66  78 S12       29.85R
WEST BEND      CLOUDY    73  64  73 S14       29.85S
JUNEAU         CLOUDY    73  66  80 S20G25    29.86R
$$

LSZ147-162-281700-
LAKE SUPERIOR

STATION/POSITION TIME  TEMP    WIND        PRES    WAVE
                       AIR SEA DIR/SP/G            HT/PER
                 (UTC) (F)     (DEG/KT/KT) (MB)    (FT/S)
W MID LAKE BUOY  1550   42 38   80/ 10/ 12 1009.3R   2/ 4
DEVILS ISLAND    1600   46     220/  1/  2 1009.4F
SAXON HARBOR     1500   52      50/  6/  7 1008.1
$$

LMZ867-665-643>646-281700-
LAKE MICHIGAN

STATION/POSITION TIME  TEMP    WIND        PRES    WAVE
                       AIR SEA DIR/SP/G            HT/PER
                 (UTC) (F)     (DEG/KT/KT) (MB)    (FT/S)
CHAMBERS ISLAND  1500   66     130/ 10/ 16 1010.2S
N MID LAKE BUOY  1550   55 46  170/ 12/ 14 1011.0F   2/ 5
NORTHPORT PIER   1500   63     160/ 11/ 15 1010.8F
SISTER BAY       1535   68     190/ 15/ 19   N/A
ALGOMA LAKESHORE 1517             CALM       N/A
KEWAUNEE LAKESHO 1500   52     180/ 11/ 12 1010.0F
SHEBOYGAN LAKESH 1600   57     170/ 19/ 21 1011.2R
PORT WASHINGTON  1500   60     190/  8/ 11 1011.5
S MID LAKE BUOY  1550   55 50  150/ 12/ 14 1013.0R   2/ 4
KENOSHA   LAKESH 1600   62     180/ 14/ 16 1012.2R
$$

TC  - TEMPERATURE IN CELSIUS
VSB - VISIBILITY IN STATUTE MILES
WCI - WIND CHILL INDEX
HX  - HEAT INDEX





USA.gov is the U.S. government's official web portal to all federal, state and local government web resources and services.